Location: Buckland
(65.9785°N, 161.1281°W)
Time: 05:07:42
(UTC+00:00)

Transit 4A - Pass Details

Date: 02 December 2020
Orbit: 864 x 980 km, 66.8° (Epoch: 26 January)

Event Time Altitude Azimuth Distance (km) Brightness Sun altitude
Rises 18:41:50 0° 205° (SSW) 3,659 11.2 -8.3°
Reaches altitude 10° 18:44:29 10° 199° (SSW) 2,724 10.6 -8.1°
Maximum altitude 18:50:27 43° 131° (SE) 1,349 9.5 -7.6°
Drops below altitude 10° 18:56:27 10° 62° (ENE) 2,740 10.7 -7.1°
Sets 18:59:08 0° 56° (ENE) 3,684 11.2 -6.9°
